Location: Niedergestelen
(46.3129°N, 7.7822°E)
Time: 13:39:53
(UTC+00:00)

Cosmos 2297 - Pass Details

Date: 01 December 2020
Orbit: 834 x 860 km, 71.0° (Epoch: 27 January)

Event Time Altitude Azimuth Distance (km) Brightness Sun altitude
Rises 16:47:01 0° 330° (NNW) 3,413 7.0 -10.6°
Reaches altitude 10° 16:49:29 10° 328° (NNW) 2,478 6.3 -11.0°
Maximum altitude 16:55:05 62° 249° (WSW) 953 4.3 -11.9°
Drops below altitude 10° 17:00:42 10° 169° (S) 2,478 6.2 -12.8°
Sets 17:03:10 0° 166° (SSE) 3,413 6.9 -13.2°
